Dewpoint
9 9 10 10 10 10 9 8 7 6 5 4 3 3 4 4 4 3 2 1 0 -1 -3 -3 -1 -3 -14 -16 -23 -20 -17 -14 -5 -3 -3 -2 -2 -2
8 8 10 9 9 9 8 7 6 5 4 4 4 4 4 3 2 1 1 -0 -1 -2 -2 -5 -17 -19 -20 -23 -19 -19 -10 -4 -4 -3 -3 -2 -2 -2
8 9 9 8 8 8 7 5 5 4 3 3 3 3 2 1 -1 -1 -0 -1 -1 -8 -19 -22 -18 -17 -18 -14 -11 -6 -5 -5 -4 -4 -4 -3 -3 -3
6 6 6 6 6 6 5 4 3 3 2 2 1 -0 -0 -0 -0 -3 -9 -18 -20 -17 -17 -16 -16 -19 -16 -11 -7 -6 -5 -4 -4 -4 -4 -4 -4 -4
5 5 5 5 4 3 2 2 0 1 1 1 -0 -1 -3 -10 -18 -19 -15 -15 -16 -15 -16 -18 -21 -22 -15 -10 -6 -6 -7 -6 -6 -6 -6 -6 -5 -5
4 4 3 2 1 1 -0 0 0 -0 -1 -2 -6 -17 -17 -18 -16 -16 -17 -15 -15 -14 -21 -20 -15 -13 -12 -12 -12 -12 -12 -12 -12 -8 -6 -5 -5 -5
3 2 -0 -1 -0 0 0 -0 -1 -3 -14 -13 -23 -22 -17 -15 -14 -12 -14 -17 -21 -21 -13 -13 -12 -12 -12 -12 -12 -12 -12 -9 -6 -6 -6 -5 -5 -5
-1 -1 -0 -0 -0 -1 -0 -2 -5 -11 -23 -24 -22 -20 -14 -14 -13 -13 -17 -23 -18 -12 -12 -13 -12 -12 -12 -12 -12 -11 -11 -11 -7 -6 -6 -6 -6 -6
-0 -0 -1 -1 -6 -17 -22 -24 -22 -19 -17 -16 -14 -13 -15 -15 -19 -22 -21 -15 -12 -12 -12 -13 -12 -12 -11 -11 -11 -11 -12 -11 -11 -8 -6 -6 -6 -6
-10 -17 -19 -22 -23 -24 -23 -21 -19 -17 -15 -14 -16 -19 -21 -20 -20 -16 -12 -12 -11 -11 -10 -11 -10 -12 -12 -12 -11 -11 -11 -11 -11 -11 -10 -10 -8 -7
-24 -24 -25 -24 -25 -27 -26 -25 -23 -21 -20 -20 -20 -21 -18 -14 -9 -10 -11 -11 -11 -11 -10 -9 -9 -11 -12 -12 -12 -12 -11 -11 -11 -10 -10 -10 -10 -8
-24 -25 -26 -26 -26 -25 -26 -26 -25 -25 -24 -23 -22 -17 -12 -12 -11 -11 -11 -10 -10 -10 -9 -9 -9 -9 -9 -11 -11 -11 -11 -11 -10 -11 -10 -10 -10 -10
-28 -28 -26 -25 -25 -25 -25 -24 -24 -23 -22 -21 -16 -12 -11 -11 -11 -10 -10 -10 -10 -9 -9 -9 -9 -9 -10 -10 -11 -11 -10 -11 -11 -11 -10 -10 -10 -9
-28 -26 -25 -24 -24 -24 -23 -23 -22 -22 -20 -13 -11 -11 -11 -10 -10 -10 -10 -10 -10 -9 -9 -9 -9 -10 -10 -10 -10 -11 -11 -10 -10 -11 -10 -10 -9 -9
-26 -25 -24 -23 -22 -22 -22 -22 -21 -18 -13 -11 -11 -10 -10 -10 -10 -10 -10 -10 -10 -10 -9 -10 -9 -10 -10 -10 -10 -10 -11 -12 -11 -10 -10 -10 -9 -9
-26 -24 -23 -23 -22 -24 -22 -20 -17 -12 -11 -11 -10 -10 -10 -9 -9 -9 -10 -10 -10 -10 -10 -10 -10 -10 -10 -10 -9 -10 -10 -10 -11 -10 -9 -9 -9 -9
-24 -23 -22 -22 -23 -22 -19 -17 -12 -11 -11 -10 -10 -9 -9 -9 -9 -9 -9 -9 -9 -9 -10 -10 -10 -10 -10 -10 -10 -10 -11 -10 -10 -9 -8 -8 -8 -9
-23 -22 -22 -22 -22 -22 -18 -13 -11 -11 -10 -10 -9 -9 -9 -9 -9 -9 -9 -9 -9 -9 -9 -10 -10 -10 -10 -11 -10 -10 -9 -9 -9 -9 -9 -8 -9 -9
-23 -22 -22 -22 -22 -22 -19 -12 -11 -10 -10 -10 -9 -9 -9 -9 -9 -9 -9 -9 -9 -9 -9 -10 -10 -10 -9 -9 -11 -10 -9 -10 -9 -9 -9 -8 -8 -9
-23 -23 -22 -21 -21 -22 -22 -16 -12 -11 -10 -10 -10 -10 -9 -9 -9 -9 -9 -9 -9 -9 -9 -9 -10 -10 -9 -9 -9 -11 -10 -10 -9 -8 -8 -8 -9 -9
-23 -23 -22 -22 -21 -21 -21 -21 -16 -12 -11 -11 -11 -11 -10 -9 -9 -9 -9 -9 -9 -9 -9 -10 -10 -10 -9 -9 -9 -9 -10 -9 -8 -8 -9 -8 -9 -9
-23 -23 -23 -22 -22 -21 -21 -21 -21 -17 -13 -12 -12 -11 -10 -9 -9 -9 -9 -9 -9 -9 -9 -10 -10 -10 -9 -8 -9 -9 -9 -9 -10 -10 -10 -9 -8 -8
-23 -24 -24 -23 -22 -22 -21 -20 -20 -21 -18 -15 -13 -12 -10 -9 -9 -9 -9 -9 -9 -9 -9 -10 -10 -10 -9 -8 -9 -9 -9 -8 -9 -9 -9 -10 -10 -9
Wind_Speed
29 31 35 40 38 39 39 36 35 30 28 31 31 28 25 24 23 30 28 27 25 22 21 24 27 26 25 25 25 24 24 22 18 18 17 17 18 18
26 28 31 35 37 32 31 30 29 26 27 22 20 16 21 21 21 21 19 19 18 21 23 22 24 25 25 25 24 23 20 19 18 17 17 17 17 18
24 23 22 23 24 25 23 22 19 17 18 17 18 17 18 15 14 15 15 16 18 19 23 23 22 21 21 20 19 18 19 18 18 18 17 17 17 19
19 21 21 21 22 21 19 15 12 10 12 12 15 14 8 10 11 11 13 15 16 18 18 16 18 19 19 19 19 17 18 18 18 18 17 17 19 19
13 15 16 16 15 11 8 6 6 6 8 6 9 7 6 8 10 11 11 13 15 15 18 20 20 20 18 17 15 17 19 20 19 20 20 19 19 20
10 9 8 8 6 6 6 6 6 6 6 4 6 7 10 12 11 13 13 13 16 19 19 18 14 13 16 15 17 19 19 19 19 17 16 18 20 21
2 3 4 5 5 5 5 4 4 2 3 5 9 10 9 10 11 12 15 18 19 17 8 12 10 11 10 14 17 17 17 16 17 18 19 20 22 23
4 4 3 2 2 4 5 2 2 6 8 8 9 9 10 11 13 15 16 17 16 8 17 12 13 11 12 14 16 17 18 18 18 19 21 21 22 22
6 4 2 1 2 2 3 5 5 6 7 9 9 9 11 11 13 14 12 12 14 14 17 16 14 13 15 18 18 15 10 13 14 15 16 18 20 21
6 3 1 1 2 4 5 6 7 7 7 8 10 10 12 11 10 10 10 12 14 13 14 19 18 19 20 20 12 9 16 11 15 17 19 21 20 21
2 1 2 4 5 7 7 8 9 9 9 10 11 10 8 7 7 9 10 14 16 15 10 18 25 28 27 20 8 21 16 18 16 17 20 21 22 21
3 4 6 7 8 9 11 11 10 10 10 9 8 7 6 6 7 9 12 14 15 14 11 25 27 28 26 22 30 24 23 18 19 19 19 20 20 21
6 7 8 9 10 11 12 11 10 9 7 6 4 4 6 7 9 11 13 14 14 15 17 19 28 26 24 34 34 31 27 25 22 18 12 12 18 20
7 8 10 11 12 12 11 9 8 8 5 4 5 6 7 8 9 10 11 11 13 16 18 19 23 22 23 30 36 32 29 26 26 16 19 19 19 18
9 10 11 12 12 11 10 8 6 5 5 5 6 7 7 9 11 11 11 12 14 14 17 18 18 19 21 26 33 34 32 32 19 26 24 23 22 21
12 13 13 13 12 11 7 6 5 5 6 6 7 8 9 10 11 12 13 14 17 16 16 17 18 19 23 26 27 32 29 27 29 27 29 27 26 26
12 13 12 10 10 8 6 6 6 7 8 8 8 9 10 11 12 12 14 16 20 22 21 19 18 19 21 23 29 27 26 29 29 31 31 33 32 29
13 12 11 11 9 8 7 8 9 9 9 9 9 10 12 13 15 15 15 17 21 22 23 22 22 24 27 28 22 25 29 30 32 32 31 34 35 30
12 12 11 11 10 10 10 10 9 9 9 10 11 12 14 16 17 17 16 19 21 22 22 22 23 22 28 32 32 25 30 31 31 32 31 33 37 35
13 13 11 12 12 11 12 12 12 11 12 12 13 14 15 17 19 20 19 21 23 24 26 26 24 22 24 29 35 33 26 33 32 35 35 35 36 33
14 14 13 12 13 13 13 14 15 14 14 15 16 16 17 18 20 21 21 22 23 23 28 28 25 21 24 26 32 36 37 32 30 34 37 36 36 36
14 14 13 13 14 14 15 16 16 17 17 18 18 18 18 19 21 22 23 25 24 25 29 30 28 28 28 28 35 36 40 38 35 34 32 31 30 31
14 14 13 13 14 15 16 17 18 18 18 19 20 20 21 22 22 22 24 25 26 28 29 30 30 29 30 30 34 38 38 41 42 42 40 34 33 32
Wind_Direction
263 269 272 269 263 265 261 259 260 254 261 260 255 260 257 261 268 260 265 273 269 270 272 275 280 282 284 286 288 285 284 284 286 284 281 282 281 278
262 267 269 268 263 258 259 259 261 261 263 272 259 262 258 255 259 260 264 265 280 283 283 285 282 282 282 285 284 284 283 282 281 280 280 278 279 278
259 263 265 265 268 265 267 271 275 271 261 263 261 254 250 252 252 265 277 280 281 279 278 280 282 285 288 288 287 285 284 283 281 279 278 277 274 274
260 263 265 269 272 270 267 261 252 244 238 247 250 247 255 270 274 272 275 279 281 281 280 283 289 290 287 285 285 288 287 287 286 283 282 278 277 276
252 256 255 253 252 247 244 241 235 238 247 252 254 265 276 281 281 287 283 278 279 285 295 300 291 292 288 285 284 276 280 280 279 279 279 279 278 276
254 251 248 238 231 231 224 224 226 228 234 255 272 299 295 277 278 284 284 290 296 296 299 291 292 293 287 290 285 286 287 286 286 288 286 285 283 280
226 221 203 203 211 213 224 229 241 332 310 297 276 272 272 276 281 287 295 299 300 303 288 299 302 291 292 286 287 292 293 291 289 286 284 283 281 280
119 144 164 175 217 238 260 281 305 269 264 269 269 271 277 280 285 289 298 303 308 315 307 325 320 322 307 299 309 307 299 292 289 283 280 283 280 280
98 105 111 162 213 261 290 277 268 268 273 275 280 282 283 285 289 295 296 298 304 317 318 322 333 326 318 322 320 315 316 313 301 294 288 283 283 280
109 112 128 255 272 261 266 275 275 278 273 276 287 292 288 288 290 295 299 303 311 321 322 314 328 324 325 330 324 333 330 320 307 294 290 287 286 280
100 25 314 297 303 307 307 298 291 285 283 280 283 286 280 277 280 289 301 310 319 329 332 326 329 329 328 334 326 333 332 324 317 307 296 289 285 282
339 328 322 314 309 306 303 297 291 287 285 281 278 270 265 273 281 295 301 306 312 328 333 323 324 331 328 325 322 326 328 327 321 315 305 296 289 286
329 323 315 307 300 301 299 297 292 292 292 283 260 260 272 276 280 285 292 298 300 296 320 315 312 317 310 312 317 326 330 330 324 320 310 311 300 294
326 317 313 308 307 305 300 295 289 287 277 258 264 269 274 280 289 291 289 289 295 306 318 314 304 311 311 309 309 323 327 327 326 328 320 315 308 299
329 323 322 317 313 306 298 288 274 259 247 260 276 287 301 310 306 301 294 290 294 311 319 323 315 313 307 304 306 315 324 324 322 324 327 320 314 307
329 325 321 317 314 309 292 272 255 252 262 274 292 304 309 308 310 307 303 299 300 307 316 329 328 318 312 308 310 312 318 305 324 326 324 316 316 318
325 322 316 311 311 301 280 264 258 265 276 286 294 303 311 312 315 313 308 306 304 308 314 329 338 329 319 314 310 315 319 319 324 325 322 317 317 316
321 318 312 308 305 290 273 266 264 267 277 286 296 306 312 314 316 317 317 315 312 313 314 326 335 330 326 321 320 320 317 315 322 326 324 316 314 317
318 314 307 301 295 285 275 273 269 271 279 289 299 305 308 313 318 322 318 313 313 315 317 326 332 331 323 319 320 320 316 322 322 320 324 322 314 312
317 311 302 292 287 283 276 276 276 277 282 289 296 304 310 313 316 317 317 315 316 317 318 324 327 324 313 314 314 317 326 323 321 318 318 320 317 312
314 309 302 292 285 281 279 275 277 280 284 288 294 301 307 308 310 314 314 315 313 311 312 317 327 324 316 311 311 311 319 321 320 320 318 308 316 317
314 308 302 294 287 280 276 274 273 275 279 284 290 296 300 303 308 309 311 313 313 312 313 317 325 327 321 317 315 306 312 322 326 324 323 318 302 295
315 311 306 295 286 280 276 274 273 274 276 282 288 292 297 300 304 305 309 311 312 310 315 317 322 326 320 317 315 306 307 314 323 323 323 327 321 314
Height
1506 1506 1506 1505 1505 1507 1507 1507 1508 1508 1506 1506 1509 1509 1509 1510 1509 1509 1507 1511 1511 1513 1512 1510 1510 1510 1510 1508 1506 1504 1501 1501 1499 1500 1498 1498 1500 1499
1500 1500 1499 1499 1499 1499 1500 1501 1502 1503 1504 1504 1501 1503 1500 1503 1504 1505 1503 1503 1505 1505 1506 1505 1504 1503 1502 1500 1498 1496 1495 1495 1494 1493 1492 1492 1492 1493
1494 1494 1494 1495 1495 1496 1496 1496 1497 1498 1499 1498 1502 1498 1499 1499 1501 1501 1499 1499 1501 1502 1502 1499 1498 1497 1496 1494 1492 1490 1491 1489 1487 1486 1485 1484 1484 1485
1490 1490 1490 1491 1492 1492 1491 1490 1491 1492 1494 1494 1496 1499 1494 1496 1498 1497 1497 1497 1497 1496 1495 1493 1493 1491 1489 1488 1486 1483 1486 1483 1481 1479 1478 1477 1477 1477
1486 1486 1486 1486 1487 1488 1489 1488 1490 1491 1492 1490 1495 1495 1492 1493 1495 1494 1493 1493 1493 1491 1490 1488 1487 1484 1483 1481 1480 1479 1478 1475 1474 1472 1471 1470 1470 1470
1483 1483 1484 1485 1486 1487 1487 1487 1486 1489 1490 1490 1492 1491 1491 1492 1491 1490 1489 1489 1488 1486 1486 1483 1481 1480 1478 1477 1475 1473 1471 1469 1467 1466 1465 1465 1464 1463
1479 1481 1484 1485 1485 1485 1486 1486 1486 1486 1489 1489 1489 1489 1489 1489 1488 1487 1486 1484 1483 1481 1481 1479 1478 1476 1475 1472 1469 1467 1464 1462 1461 1460 1459 1458 1457 1455
1480 1482 1484 1485 1485 1486 1487 1487 1486 1486 1486 1486 1486 1486 1486 1485 1485 1484 1482 1480 1478 1478 1475 1474 1472 1471 1469 1466 1463 1460 1458 1455 1453 1452 1451 1450 1449 1448
1482 1484 1485 1486 1486 1486 1485 1485 1484 1484 1483 1483 1483 1483 1482 1482 1481 1479 1478 1477 1475 1474 1471 1467 1467 1465 1463 1460 1457 1454 1451 1449 1447 1445 1445 1444 1442 1440
1484 1484 1485 1485 1485 1484 1484 1483 1482 1481 1480 1480 1479 1479 1478 1477 1476 1475 1474 1472 1471 1470 1467 1462 1461 1458 1456 1454 1451 1450 1448 1445 1442 1439 1437 1435 1433 1432
1484 1484 1484 1483 1482 1482 1481 1480 1479 1478 1477 1476 1476 1475 1474 1473 1473 1472 1470 1469 1466 1465 1463 1459 1456 1451 1448 1446 1445 1444 1442 1439 1436 1433 1430 1427 1424 1422
1483 1482 1482 1481 1480 1479 1478 1476 1476 1475 1474 1473 1472 1472 1471 1470 1469 1469 1467 1466 1464 1461 1460 1457 1452 1450 1441 1437 1438 1437 1435 1433 1430 1426 1422 1419 1416 1414
1482 1481 1480 1479 1478 1476 1474 1473 1471 1470 1470 1469 1469 1469 1468 1467 1467 1466 1464 1462 1460 1458 1458 1455 1449 1447 1446 1436 1429 1429 1427 1424 1421 1419 1416 1414 1412 1409
1480 1479 1478 1476 1474 1472 1470 1469 1468 1467 1467 1467 1466 1466 1465 1464 1463 1461 1460 1458 1457 1456 1454 1451 1446 1443 1440 1434 1426 1423 1420 1418 1414 1411 1410 1407 1405 1403
1478 1476 1474 1472 1470 1468 1467 1466 1465 1465 1465 1465 1464 1463 1462 1460 1459 1457 1455 1454 1453 1452 1450 1446 1441 1438 1436 1431 1424 1419 1414 1409 1408 1405 1402 1399 1396 1394
1474 1472 1470 1469 1467 1465 1464 1463 1463 1462 1462 1462 1461 1460 1458 1457 1455 1452 1451 1449 1447 1446 1444 1441 1437 1434 1429 1425 1421 1413 1412 1408 1401 1399 1396 1392 1389 1386
1471 1469 1467 1466 1464 1463 1462 1461 1461 1460 1460 1459 1457 1456 1455 1453 1451 1449 1447 1444 1442 1439 1437 1435 1433 1429 1424 1419 1413 1409 1405 1400 1397 1393 1389 1383 1381 1379
1468 1466 1464 1463 1461 1460 1459 1459 1458 1457 1457 1455 1454 1452 1451 1449 1447 1445 1443 1440 1436 1433 1430 1428 1425 1421 1415 1411 1407 1401 1399 1395 1390 1386 1382 1378 1371 1370
1465 1463 1461 1460 1459 1457 1457 1456 1455 1454 1453 1452 1450 1449 1447 1445 1443 1441 1438 1435 1431 1428 1425 1422 1420 1417 1411 1405 1399 1398 1392 1388 1383 1379 1376 1371 1364 1359
1462 1460 1458 1456 1455 1454 1453 1452 1451 1450 1449 1448 1447 1445 1443 1441 1438 1435 1432 1429 1425 1422 1418 1416 1414 1412 1408 1402 1394 1386 1388 1381 1377 1371 1367 1363 1358 1352
1457 1455 1453 1452 1451 1449 1448 1448 1446 1446 1445 1443 1442 1440 1438 1436 1433 1430 1427 1424 1421 1417 1413 1410 1408 1406 1401 1397 1388 1380 1376 1376 1372 1366 1360 1356 1349 1342
1453 1451 1449 1447 1446 1444 1444 1442 1441 1440 1439 1438 1436 1435 1433 1431 1428 1425 1422 1418 1415 1411 1407 1403 1400 1396 1393 1389 1381 1374 1368 1364 1363 1360 1355 1350 1345 1338
1449 1447 1444 1442 1441 1439 1437 1436 1435 1434 1433 1432 1430 1429 1427 1424 1422 1419 1415 1412 1409 1405 1401 1396 1393 1390 1385 1381 1375 1368 1363 1357 1352 1346 1341 1339 1335 1331